Regional Weather Roundup
Issued by NWS

Home | Current Version | Previous Version | Graphics & Text | Print | Product List | Glossary On
Versions: 1 2 3 4 5 6 7 8 9 10 11 12 13 14 15 16 17 18 19 20 21 22 23 24 25 26 27 28 29 30 31 32 33 34 35 36 37 38 39 40 41 42 43 44 45 46 47 48 49 50
707
ASUS44 KLIX 200805
RWRLA
LOUISIANA WEATHER ROUNDUP
NATIONAL WEATHER SERVICE NEW ORLEANS LA
300 AM CDT MON OCT 20 2014

NOTE: "FAIR" INDICATES FEW OR NO CLOUDS BELOW 12,000 FEET WITH NO
      SIGNIFICANT WEATHER AND/OR OBSTRUCTIONS TO VISIBILITY.
      SKY/WX - SKY CONDITION AND SIGNIFICANT WEATHER.
      TMP - AIR TEMPERATURE.    DP   - DEWPOINT TEMPERATURE.
      RH  - RELATIVE HUMIDITY.  PRES - PRESSURE.
      HX  - HEAT INDEX.         WCI  - WIND CHILL INDEX.

*  THESE STATIONS ARE NOT NWS OR FAA STATIONS AND ARE NOT UNDER
   NWS QUALITY CONTROL.

LAZ040-048-061>063-065-066-069-200900-
SOUTHEAST LOUISIANA

CITY           SKY/WX    TMP DP  RH WIND       PRES   REMARKS
N.O. AUDUBON     N/A     62  59  91 MISG        N/A
N.O. INTL ARPT CLEAR     61  56  83 CALM      30.04F
N.O. LAKEFRONT CLEAR     68  60  75 E6        30.05F
N.O. DOWNTOWN* FAIR      66  55  68 CALM      30.05S
SLIDELL        CLEAR     51  48  89 CALM      30.05S
BATON ROUGE    PTCLDY    54  51  90 NE5       30.05F
BOOTHVILLE     CLEAR     70  61  73 CALM      30.03F
BELLE CHASSE   CLEAR     56  52  86 CALM      30.04F
BOGALUSA*        N/A     48  45  89 CALM      30.08R
NEW ROADS*     FAIR      53  52  97 CALM      30.06S
GONZALES*      FAIR      55  55 100 CALM      30.04F
HAMMOND*       CLEAR     52  48  87 CALM      30.07F
HOUMA*         CLEAR     58  58  99 CALM      30.04S FOG
PORT FOURCHON* SUNNY     70  59  68 NE3       30.06S

$$

LAZ041-044-053-054-200900-
SOUTHWEST LOUISIANA

CITY           SKY/WX    TMP DP  RH WIND       PRES   REMARKS
LAKE CHARLES   PTCLDY    59  54  83 NE6       30.04F
LAFAYETTE      CLEAR     58  56  93 CALM      30.05S
PATTERSON      NOT AVBL
SALT POINT       N/A     65  62  90 CALM      30.02F
NEW IBERIA     PTCLDY    60  57  89 N3        30.05F
CHENAULT AIRPK CLEAR     58  53  81 NE3       30.05S

$$

LAZ027-028-200900-
CENTRAL LOUISIANA

CITY           SKY/WX    TMP DP  RH WIND       PRES   REMARKS
FORT POLK      MOCLDY    56  51  80 E5        30.05F
ALEXANDRIA INT CLEAR     51  49  92 CALM      30.05S
ALEXANDRIA     CLEAR     48  46  93 CALM      30.06S

$$

LAZ001-002-200900-
NORTHWEST LOUISIANA

CITY           SKY/WX    TMP DP  RH WIND       PRES   REMARKS
SHREVEPORT     CLEAR     53  50  89 CALM      30.06S
BARKSDALE AFB  CLEAR     53  50  90 CALM      30.06F
DTN SHREVEPORT CLEAR     52  49  89 CALM      30.07S

$$

LAZ014-016-200900-
NORTHEAST LOUISIANA

CITY           SKY/WX    TMP DP  RH WIND       PRES   REMARKS
MONROE         FOG       46  46 100 CALM      30.08F VSB 1/2
TALLULAH       CLEAR     43  42  97 CALM      30.08S

$$




USA.gov is the U.S. government's official web portal to all federal, state and local government web resources and services.